DELTA 1 DEB, 14839

Orbit data source: Space-Track

DELTA 1 DEB, 14839 is space debris in LEO originally from a launch on Thu, 14 Jul 1977 UTC launched from the Air Force Eastern Test Range (AFETR). Debris objects in space refer to the collection of defunct objects orbiting the Earth. Examples of debris include non-operational satellites, rocket bodies, and fragments generated from explosions, collisions, or faulty payload assembly.

Loading next visibility...
Identifier
14839, 1977-065FU
Orbit
LEO
Country
Flag of USUS
Related business
Manufacturer
Unknown
Mission
Spacecraft
Bus & Motor
Unknown
Mass
Unknown
Launch date (UTC)
1977-07-14 (48 years ago)
Launch vehicle
Unknown
Launch site
Air Force Eastern Test Range (AFETR)
Object type
Payload
Rocket body
Debris
Shape & HBR
Unknown shape, 0.1 m
Radar Cross Section
Small (<0.1 m²)

Expand to show TLE details & history
Last TLE update: 2 days ago

TLE from 2 days ago
0 DELTA 1 DEB
1 14839U 77065FU  25304.72596988  .00000036  00000-0 -46581-4 0  9996
2 14839  28.9919 186.1781 0983758 331.1012  52.7900 11.92462964132517
Epoch: 2025-10-31T17:25Z
TLE epoch observation values (Epoch: 2025-10-31T17:25:23.797Z)
Latitude
15.59279°
Longitude
-85.36626°
Altitude
1,285.548 km
Speed
7.404 km/s
True Right ascension
14h 24m 59s
True Declination
15° 30' 36"
Sunlit
Object was in daylight at epoch
Visualization orbit readout
Latitude
Unknown
Longitude
Unknown
Altitude
Unknown
Speed
Unknown
Apparent Right ascension
Unknown
Apparent Declination
Unknown
Sunlit
N/A
Visualization observer readout
Local Sidereal Time
23:51:34
Azimuth
Unknown
Elevation
Unknown
Doppler factor
Unknown
Orbital elements
Apogee altitude
2,514.865 km
Perigee altitude
921.865 km
Semi-major axis
8,096.502 km
Eccentricity
0.09838
Inclination
28.9919°
RAAN
186.1781°
Arg. of periapsis
331.1012°
True anomaly
62.44063°
Mean anomaly
52.79°
Eccentric anomaly
57.54623°
Mean motion
2.97918 °/min
Orbital period
120.84 mins
BSTAR
-0.000046581
Loading maneuver chart data...
Computing Atmospheric mass density...
Loading historical data...
Loading historical data...
Loading historical data...
Loading historical data...
Loading historical data...
Loading historical data...
Loading historical data...

Documentation

Showing up to 5 results
|